Weather in Uspenka

Russia / Volgograd Oblast     50°38′36″N   41°29′07″E
temp.,
°C
wind,
m/s
gust,
m/s
humid.,
%
clouds,
%
prec.,
mm/h
press.,
hPa
HPBL,
m
25 february, thu
thu2500:00−15ssw488694 0.0 1038277
03:00−15ssw5109596 0.1 1036320
06:00−13ssw61193100 0.3 1034403
09:00−11sw71193100 0.4 1031418
12:00−8sw81294100 0.2 1029429
15:00−5sw81393100 0.7 1025480
18:00−4sw91594100 0.4 1022386
21:00−1wsw81496100 0.8 1020370
26 february, fri
fri2600:00+1w61198100 0.2 1019292
03:00+1w61198100 0.3 1019294
06:00+1wnw61198100 0.4 1018298
09:00+1w51098100 0.6 1018251
12:00+2w612100100 0.0 1017335
15:00+2w71398100 0.0 1016372
18:00+2w81598100 0.0 1014497
21:00+2w71498100 0.2 1013423
27 february, sat
sat2700:00+2w71497100 0.1 1011444
03:00+1w61297100 0.1 1011446
06:00+1w61295100 0.0 1009500
09:00+1w61296100 0.0 1009561
12:00+1wnw61197100 0.1 1008680
15:00+1w61296100 0.1 1008600
18:00+1w71197100 0.0 1007630
21:000wnw61197100 0.2 1008593
28 february, sun
sun2800:000wnw51191100 0.1 1008487
03:00−1nw599799 0.1 1009499
06:00−2n489597 0.3 1011470
09:00−5nnw578792 0.3 1013504
12:00−5nnw578398 0.0 1014559
15:00−5nnw688298 0.0 1016617
18:00−5nnw5888100 0.0 1017614
21:00−6n6886100 0.1 1020639
1 march, mon
mon100:00−6n4690100 0.1 1022546
03:00−7nnw369399 0.1 1023476
06:00−7n4791100 0.1 1024605
09:00−7n5788100 0.2 1026584
12:00−6n5683100 0.1 1028631
15:00−6nnw5781100 0.1 1028644
18:00−6nnw4889100 0.0 1029494
21:00−7nw259685 0.0 1030159